TimeWET,TemperatureF,Dew PointF,Humidity,Sea Level PressureIn,VisibilityMPH,Wind Direction,Wind SpeedMPH,Gust SpeedMPH,PrecipitationIn,Events,Conditions,WindDirDegrees,DateUTC
12:00 AM,68,39,23,29.56,5,East,9.2,,,Rain,Light Rain,90,2013-03-04 00:00:00
12:00 AM,68.0,39.2,35,29.56,5.0,East,9.2,-,N/A,Rain,Light Rain,90,2013-03-04 00:00:00
1:00 AM,68.0,41.0,37,29.50,5.0,East,4.6,-,N/A,,Mostly Cloudy,100,2013-03-04 01:00:00
2:00 AM,60.8,53.6,77,29.50,6.2,NW,6.9,-,N/A,Rain,Light Rain,320,2013-03-04 02:00:00
3:00 AM,59,56,85,32.42,5,NNE,3.5,,,Rain-Thunderstorm,Thunderstorms and Rain,30,2013-03-04 03:00:00
3:00 AM,59.0,55.4,88,29.44,5.0,NNE,3.5,-,N/A,,Mostly Cloudy,30,2013-03-04 03:00:00
3:08 AM,59.0,55.4,88,29.44,6.2,NNE,6.9,-,N/A,Rain-Thunderstorm,Light Thunderstorms and Rain,30,2013-03-04 03:08:00
3:10 AM,59.0,55.4,88,29.44,6.2,NNE,6.9,-,N/A,Rain-Thunderstorm,Light Rain Showers,20,2013-03-04 03:10:00
3:26 AM,59.0,55.4,88,29.47,6.2,NNE,3.5,-,N/A,Rain-Thunderstorm,Rain Showers,30,2013-03-04 03:26:00
3:28 AM,59.0,55.4,88,29.44,6.2,NNE,3.5,-,N/A,Rain-Thunderstorm,Rain Showers,30,2013-03-04 03:28:00
3:30 AM,59.0,55.4,88,29.44,5.0,NNE,4.6,-,N/A,Rain-Thunderstorm,Rain Showers,30,2013-03-04 03:30:00
3:41 AM,60.8,51.8,72,29.42,5.0,Variable,11.5,26.5,N/A,Rain-Thunderstorm,Rain Showers,0,2013-03-04 03:41:00
3:50 AM,62.6,53.6,72,29.44,5.0,Variable,11.5,25.3,N/A,Rain-Thunderstorm,Rain Showers,0,2013-03-04 03:50:00
4:00 AM,59.0,55.4,88,29.44,6.2,NNE,6.9,-,N/A,Rain-Thunderstorm,Light Thunderstorms and Rain,30,2013-03-04 04:00:00
4:42 AM,57.2,55.4,94,29.47,5.0,SW,6.9,-,N/A,Rain-Thunderstorm,Rain Showers,230,2013-03-04 04:42:00
5:00 AM,59.0,55.4,88,29.47,5.0,SW,6.9,-,N/A,Rain-Thunderstorm,Rain Showers,230,2013-03-04 05:00:00
5:58 AM,57.2,55.4,94,29.47,5.0,SSE,5.8,-,N/A,Rain-Thunderstorm,Rain Showers,150,2013-03-04 05:58:00
6:00 AM,58,56,90,29.49,5,SSE,6.9,,,,Overcast,150,2013-03-04 06:00:00
6:00 AM,57.2,55.4,94,29.47,5.0,SSE,6.9,-,N/A,,Mostly Cloudy,150,2013-03-04 06:00:00
7:00 AM,57.2,55.4,94,29.47,5.0,South,6.9,-,N/A,Rain,Light Rain,170,2013-03-04 07:00:00
8:00 AM,57.2,55.4,94,29.47,5.0,South,6.9,-,N/A,Rain,Light Rain,180,2013-03-04 08:00:00
9:00 AM,58,56,91,29.48,5,South,6.9,,,,Overcast,180,2013-03-04 09:00:00
9:00 AM,57.2,55.4,94,29.47,5.0,South,6.9,-,N/A,Rain,Light Rain,190,2013-03-04 09:00:00
10:00 AM,60.8,57.2,88,29.47,5.0,South,11.5,-,N/A,,Mostly Cloudy,190,2013-03-04 10:00:00
11:00 AM,62.6,59.0,88,29.47,5.0,SSW,6.9,-,N/A,Rain-Thunderstorm,Light Rain,200,2013-03-04 11:00:00
12:00 PM,65,59,75,29.49,5,SW,16.1,,,Rain,Light Rain,230,2013-03-04 12:00:00
1:00 PM,66.2,60.8,83,29.47,5.0,SW,19.6,34.5,N/A,Rain,Light Rain,230,2013-03-04 13:00:00
2:00 PM,68.0,57.2,68,29.44,6.2,WSW,16.1,31.1,N/A,,Scattered Clouds,240,2013-03-04 14:00:00
3:00 PM,67,58,66,29.46,5,WSW,17.3,,,,Partly Cloudy,240,2013-03-04 15:00:00
3:00 PM,68.0,59.0,73,29.44,5.0,WSW,17.3,-,N/A,,Scattered Clouds,240,2013-03-04 15:00:00
4:00 PM,66.2,59.0,78,29.44,5.0,WSW,13.8,-,N/A,,Scattered Clouds,240,2013-03-04 16:00:00
5:00 PM,66.2,57.2,73,29.44,6.2,SW,13.8,-,N/A,,Scattered Clouds,230,2013-03-04 17:00:00
6:00 PM,64.4,57.2,77,29.44,5.0,SW,13.8,-,N/A,Rain,Rain,230,2013-03-04 18:00:00
6:05 PM,62.6,57.2,82,29.44,3.1,SW,13.8,26.5,N/A,Rain,Rain Showers,230,2013-03-04 18:05:00
6:11 PM,62.6,57.2,82,29.44,3.1,SW,12.7,26.5,N/A,Rain-Thunderstorm,Rain Showers,220,2013-03-04 18:11:00
7:00 PM,59.0,55.4,88,29.47,3.1,West,11.5,-,N/A,Rain-Thunderstorm,Rain Showers,270,2013-03-04 19:00:00
7:18 PM,59.0,55.4,88,29.44,3.1,West,4.6,-,N/A,Rain-Thunderstorm,Rain Showers,260,2013-03-04 19:18:00
8:00 PM,57.2,55.4,94,29.44,3.1,Calm,Calm,-,N/A,Rain-Thunderstorm,Rain Showers,0,2013-03-04 20:00:00
9:00 PM,56,54,89,29.51,3,West,6.9,,,Rain-Thunderstorm,Thunderstorms and Rain,260,2013-03-04 21:00:00
9:00 PM,55.4,53.6,94,29.50,3.1,West,6.9,-,N/A,Rain-Thunderstorm,Rain Showers,260,2013-03-04 21:00:00
9:14 PM,55.4,53.6,94,29.47,3.1,WNW,10.4,-,N/A,Rain,Rain Showers,290,2013-03-04 21:14:00
10:00 PM,55.4,53.6,94,29.47,3.1,WSW,1.2,-,N/A,Rain,Rain,240,2013-03-04 22:00:00
11:00 PM,55.4,53.6,94,29.50,3.1,SE,5.8,-,N/A,Rain,Rain,130,2013-03-04 23:00:00